Regional Weather Roundup
Issued by NWS

Home | Current Version | Previous Version | Text Only | Print | Product List | Glossary Off
Versions: 1 2 3 4 5 6 7 8 9 10 11 12 13 14 15 16 17 18 19 20 21 22 23 24 25 26 27 28 29 30 31 32 33 34 35 36 37 38 39 40 41 42 43 44 45 46 47 48 49 50

956
ASUS43 KOAX 221810
RWRNE

WEATHER ROUNDUP FOR NEBRASKA
NATIONAL WEATHER SERVICE OMAHA NE
100 PM CDT SAT APR 22 2017

NOTES: SATELLITE DATA IS BEING USED TO AUGMENT CLOUD COVER ABOVE
       12000 FEET.
       "FAIR" INDICATES FEW OR NO CLOUDS BELOW 12,000 FEET WITH NO
       SIGNIFICANT WEATHER AND/OR OBSTRUCTIONS TO VISIBILITY.

  * THESE STATIONS DO NOT REPORT WEATHER SUCH AS RAIN...SNOW OR FOG.

NEZ001>004-019>022-054>056-221900-
NEBRASKA PANHANDLE

CITY           SKY/WX    TMP DP  RH WIND       PRES   REMARKS
SCOTTSBLUFF    PTSUNNY   58  34  40 SE7       30.27F
6HR MIN TEMP:  33; 6HR MAX TEMP:  58;

ALLIANCE       SUNNY     56  34  43 VRB6      30.27F
6HR MIN TEMP:  28; 6HR MAX TEMP:  56;

CHADRON        MOSUNNY   59  34  39 SW8       30.25F
6HR MIN TEMP:  31; 6HR MAX TEMP:  60;

KIMBALL        PTSUNNY   51  36  56 SW7       30.30F
SIDNEY         PTSUNNY   50  35  56 CALM      30.31F
6HR MIN TEMP:  32; 6HR MAX TEMP:  52;

$$

NEZ057>060-069>072-079>082-221900-
SOUTHWEST NEBRASKA

CITY           SKY/WX    TMP DP  RH WIND       PRES   REMARKS
NORTH PLATTE   MOSUNNY   59  33  37 NE10      30.30F
6HR MIN TEMP:  28; 6HR MAX TEMP:  59;

IMPERIAL       MOSUNNY   54  32  43 VRB6      30.31F
6HR MIN TEMP:  36; 6HR MAX TEMP:  54;

LEXINGTON      MOSUNNY   56  30  37 NE6       30.30F
MCCOOK         MOSUNNY   57  34  41 CALM      30.30F
6HR MIN TEMP:  36; 6HR MAX TEMP:  57;

OGALLALA       PTSUNNY   57  32  38 W3        30.31S
$$

NEZ005>010-023>029-035>040-094-221900-
NORTH CENTRAL NEBRASKA

CITY           SKY/WX    TMP DP  RH WIND       PRES   REMARKS
VALENTINE      SUNNY     61  29  29 SW9       30.28F
6HR MIN TEMP:  28; 6HR MAX TEMP:  61;

AINSWORTH      SUNNY     58  36  45 NW5       30.29F
BROKEN BOW     MOSUNNY   59  33  37 VRB3      30.29F
6HR MIN TEMP:  36; 6HR MAX TEMP:  59;

O`NEILL        MOSUNNY   59  33  37 E8        30.29F
ORD            MOSUNNY   59  34  39 NW6       30.28F
6HR MIN TEMP:  34; 6HR MAX TEMP:  60;

THEDFORD       SUNNY     58  32  36 S3        30.30F
$$

NEZ041-046>049-061>064-073>077-083>087-221900-
SOUTH CENTRAL NEBRASKA

CITY           SKY/WX    TMP DP  RH WIND       PRES   REMARKS
GRAND ISLAND   MOSUNNY   60  33  36 N9        30.29S
6HR MIN TEMP:  37; 6HR MAX TEMP:  60;

AURORA         PTSUNNY   61  32  33 N7        30.27F
HASTINGS       PTSUNNY   59  31  34 CALM      30.28F
6HR MIN TEMP:  41; 6HR MAX TEMP:  61;

HEBRON         SUNNY     61  28  28 NE12G17   30.25F
HOLDREGE       SUNNY     58  30  35 NE3G10    30.29F
KEARNEY *      MOSUNNY   57  28  33 NW8       30.29F
YORK           MOSUNNY   59  32  36 CALM      30.27F
$$

NEZ011>018-030>034-042>045-221900-
NORTHEAST NEBRASKA

CITY           SKY/WX    TMP DP  RH WIND       PRES   REMARKS
NORFOLK        SUNNY     60  32  34 CALM      30.27F
6HR MIN TEMP:  36; 6HR MAX TEMP:  60;

ALBION         SUNNY     60  32  35 N9        30.29F
BLAIR          CLOUDY    61  35  38 N13       30.25F
FREMONT        SUNNY     61  32  33 CALM      30.27F
TEKAMAH        SUNNY     63  36  36 N12       30.26F
6HR MIN TEMP:  40; 6HR MAX TEMP:  63;

WAYNE          SUNNY     60  34  37 N5        30.28F
$$

NEZ050>053-065>068-078-088>093-221900-
SOUTHEAST NEBRASKA

CITY           SKY/WX    TMP DP  RH WIND       PRES   REMARKS
LINCOLN        MOSUNNY   62  32  32 N6        30.27F
6HR MIN TEMP:  39; 6HR MAX TEMP:  63;

OMAHA EPPLEY   CLOUDY    64  31  28 NE15      30.24F
6HR MIN TEMP:  39; 6HR MAX TEMP:  64;

BEATRICE       SUNNY     62  34  34 NE10G20   30.24S
FALLS CITY     SUNNY     62  38  40 E18G24    30.20F
6HR MIN TEMP:  44; 6HR MAX TEMP:  63;

NEBRASKA CITY  PTSUNNY   61  22  22 NE14G22   30.23F
PLATTSMOUTH    PTSUNNY   62  26  26 NE10G17   30.24F
$$

NEZ044-045-051>053-067-221900-
OMAHA AREA

CITY           SKY/WX    TMP DP  RH WIND       PRES   REMARKS
OMAHA EPPLEY   CLOUDY    64  31  28 NE15      30.24F
6HR MIN TEMP:  39; 6HR MAX TEMP:  64;

BLAIR          CLOUDY    61  35  38 N13       30.25F
FREMONT        SUNNY     61  32  33 CALM      30.27F
MILLARD        MOSUNNY   64  37  37 N10       30.26S
OFFUTT AFB     MOSUNNY   65  33  30 NE15G21   30.23F
PLATTSMOUTH    PTSUNNY   62  26  26 NE10G17   30.24F
WAHOO          FAIR      62  30  30 NE6       30.26F
$$




USA.gov is the U.S. government's official web portal to all federal, state and local government web resources and services.